Terminal Aerodrome Forecast
Issued by NWS Sioux Falls, SD

Home | Current Version | Previous Version | Text Only | Print | Product List | Glossary Off
Versions: 1 2 3 4 5 6 7 8 9 10 11 12 13 14 15 16 17

000
FTUS43 KFSD 180525
TAFSUX
TAF
KSUX 180525Z 1806/1906 03015KT P6SM SCT150 SCT250
     FM180800 04013KT 5SM -SN OVC030
     FM180900 03012KT 1SM -SN OVC015
     FM181200 35014G22KT 3/4SM -SN OVC008
     FM181700 34014KT 4SM -RASN OVC008
     FM182000 33012KT P6SM OVC010
     FM190300 33008KT P6SM BKN020=

USA.gov is the U.S. government's official web portal to all federal, state and local government web resources and services.